www.pogodaiklimat.ru
Время
(UTC), дата
09 24.11
12 24.11
15 24.11
18 24.11
21 24.11
00 25.11
03 25.11
06 25.11
09 25.11
12 25.11
15 25.11
18 25.11
21 25.11
00 26.11
03 26.11
06 26.11
09 26.11
12 26.11
15 26.11
18 26.11
21 26.11
00 27.11
03 27.11
06 27.11
09 27.11
12 27.11
15 27.11
18 27.11
21 27.11
00 28.11
03 28.11
06 28.11
09 28.11
12 28.11
15 28.11
18 28.11
21 28.11
00 29.11
03 29.11
06 29.11
09 29.11
12 29.11
15 29.11
18 29.11
21 29.11
00 30.11
03 30.11
06 30.11
09 30.11
12 30.11
15 30.11
18 30.11
21 30.11
00 1.12
03 1.12
06 1.12
Ветер
(напр.,м/с)
Видим. Явления Облачность Т
(С)
Тd
(С)
f
(%)
Тe
(С)
Тes
(С)
Комфортность P
(гПа)
Po
(гПа)
Тmin
(С)
Tmax
(С)
R
(мм)
R24
(мм)
S
(см)
штиль 0 20 км слаб. снег 10/0
[Ac As]
-7.2 -11.1 74 -8 -8 тепло 1036.8 956.6
штиль 0 4000 м слаб. снег 10/0
[Ac As]
-8.2 -10.5 83 -9 -9 тепло 1037.6 957.1 -5.8 0.3
Ю 1 4000 м слаб. снег 10/0
[Ac As]
-8.8 -10.3 89 -11 -11 тепло 1038.0 957.3
штиль 0 10 км в посл. час снег 9/0
[Ac trans Cs]
-10.8 -12.1 90 -11 -11 тепло 1038.5 957.1
штиль 0 10 км 9/0
[Ac trans Cs]
-10.6 -11.2 95 -11 -11 тепло 1038.4 957.1
штиль 0 10 км в посл. час снег 9/0
[Ac As Cs]
-11.0 -12.3 90 -11 -11 тепло 1038.7 957.3 -11.2 0.2 2
штиль 0 4000 м слаб. снег 10/0
[Ac As]
-9.6 -11.2 88 -10 -10 тепло 1039.7 958.6
штиль 0 4000 м слаб. снег 10/0
[Ac As]
-6.4 -8.8 83 -7 -7 тепло 1038.4 958.4
В 1 4000 м слаб. снег 10/0
[Ac As]
-6.1 -9.2 79 -8 -8 тепло 1038.2 958.2
штиль 0 10 км {снег} 10/0
[Ac As]
-11.9 -13.6 87 -12 -12 тепло 1041.7 959.7 -6.3 0.2
штиль 0 4000 м слаб. снег 10/0
[Ac As]
-10.8 -12.1 90 -11 -11 тепло 1041.7 960.1
штиль 0 4000 м слаб. снег 10/0
[Ac As]
-11.2 -12.5 90 -11 -11 тепло 1042.1 960.3
4000 м слаб. снег 10/0
[Ac As]
-11.6 -12.9 90 1042.3 960.4
ЮЗ 1 4000 м слаб. снег 10/0
[Ac As]
-11.6 -12.9 90 -14 -14 по сезону 1043.0 961.0 -11.7 0.0 2
штиль 0 2000 м слаб. снег 9/0
[Ac trans Cs]
-10.7 -12.0 90 -11 -11 по сезону 1043.2 961.5
З 1 2000 м дымка {снег} 9/0
[Ac trans Cs]
-7.3 -11.2 74 -10 -8 по сезону 1042.3 961.6
Ю 1 10 км 9/0
[Ac trans Cs]
-7.8 -11.4 75 -10 -10 тепло 1042.7 961.9
штиль 0 10 км 9/0
[Ac trans Cs]
-13.2 -14.5 90 -13 -13 по сезону 1045.3 962.6 -6.0 0.0
штиль 0 10 км 10/0
[Ac As]
-11.2 -12.5 90 -11 -11 тепло 1045.8 963.7
Ю 1 10 км 10/0
[Ac As]
-12.3 -13.6 90 -15 -15 по сезону 1046.5 964.1
штиль 0 10 км 10/0
[Ac As]
-11.3 -12.6 90 -11 -11 тепло 1045.9 963.8
штиль 0 4000 м слаб. снег 10/0
[Ac As]
-11.1 -12.8 87 -11 -11 по сезону 1045.8 963.7 -13.3 -13.3 0.0 2
штиль 0 4000 м дымка {снег} 10/0
[Ac As]
-9.9 -11.6 87 -10 -10 по сезону 1045.7 964.0
З 1 20 км {снег} 9/8 1000 м
[Cb cap Ac trans]
-8.3 -11.5 78 -11 -10 по сезону 1044.5 963.4
ЮЗ 1 20 км 9/3 1000 м
[Sc Ac trans Ci fib]
-8.0 -11.6 75 -10 -10 по сезону 1043.0 962.1
ЮЗ 1 10 км 9/0
[Ac As Ci sp]
-10.2 -12.2 85 -12 -12 по сезону 1043.9 962.3 -7.5 0.0
штиль 0 10 км 9/0
[Ac trans Cs]
-10.3 -11.6 90 -11 -11 по сезону 1043.6 962.0
З 1 10 км 10/0
[Ac As]
-10.1 -12.1 85 -12 -12 по сезону 1043.5 962.0
ЮЗ 1 4000 м слаб. снег 10/0
[Ac As]
-10.6 -12.6 85 -13 -13 по сезону 1044.0 962.3
штиль 0 4000 м слаб. снег 10/0
[Ac As]
-10.8 -12.8 85 -11 -11 по сезону 1044.6 962.7 -10.8 0.0 2
В 2 4000 м слаб. снег 10/0
[Ac As]
-10.4 -12.4 85 -15 -15 по сезону 1045.0 963.2
В 2 20 км слаб. снег 9/0
[Ac trans Cs]
-9.7 -13.8 72 -14 -13 по сезону 1044.4 962.9
В 2 20 км {снег} 9/3 1000 м
[Sc Ac trans Ci fib]
-9.5 -13.6 72 -14 -14 по сезону 1043.6 962.2
СВ 1 10 км {снег} 9/0
[Ac trans Ci fib]
-15.2 -17.2 85 -18 -18 прохладно 1046.1 962.8 -8.4 0.0
ЮЗ 1 10 км 9/0
[Ac As Ci fib]
-14.6 -16.6 85 -17 -17 по сезону 1046.1 963.0
ЮЗ 1 10 км в посл. час снег 9/0
[Ac As Ci sp]
-15.2 -17.2 85 -18 -18 по сезону 1046.7 953.4
штиль 0 10 км 10/0
[Ac As]
-14.4 -16.4 85 -14 -14 по сезону 1046.9 963.7
ЮЗ 1 10 км 10/0
[Ac As]
-13.8 -15.8 85 -16 -16 по сезону 1047.6 964.6 -17.5 0.0 2
ЮЗ 1 4000 м слаб. снег 10/0
[Ac As]
-13.3 -15.3 85 -16 -16 прохладно 1048.0 965.2
ЮЗ 1 10 км в посл. час снег 10/0
[Ac As]
-10.6 -14.2 75 -13 -12 по сезону 1046.8 964.8
ЮЗ 1 20 км 10/0
[Ac trans Ci fib]
-9.6 -14.2 69 -12 -12 по сезону 1046.5 964.8
ЮЗ 1 10 км 6/0
[Ac trans Ci fib]
-16.4 -19.0 80 -19 -19 холодно 1049.7 965.7 -9.5 0.0
ЮЗ 1 10 км 9/0
[Ac trans Cs]
-15.6 -17.5 85 -18 -18 прохладно 1049.5 965.8
Ю 1 10 км слаб. снег 9/0
[Ac trans Cs]
-15.3 -17.3 85 -18 -18 прохладно 1049.9 966.3
штиль 0 10 км слаб. снег 10/0
[Ac As]
-15.0 -17.0 85 -15 -15 по сезону 1050.2 966.6
ЮЗ 1 4000 м слаб. снег 10/0
[Ac As]
-14.6 -17.3 80 -17 -17 по сезону 1050.6 967.1 -18.5 0.0 2
ЮЗ 1 4000 м слаб. снег 10/0
[Ac As]
-14.1 -16.8 80 -17 -16 по сезону 1051.1 967.7
ЮЗ 2 4000 м слаб. снег 10/0
[Ac As]
-12.7 -16.2 75 -17 -17 по сезону 1050.9 968.0
ЮЗ 1 10 км {снег} 9/0
[Ac trans Cs]
-12.3 -15.8 75 -15 -14 по сезону 1050.8 968.0
ЮЗ 1 10 км {снег} 10/0
[Ac As]
-13.7 -17.2 75 -16 -16 по сезону 1052.7 969.4 -12.1 0.0
ЮЗ 1 10 км 8/0
[Ac trans]
-16.2 -18.8 80 -19 -19 по сезону 1054.7 970.4
ЮЗ 1 10 км 9/0
[Ac trans Ci fib]
-19.9 -22.5 80 -23 -23 по сезону 1056.6 970.9
ЮЗ 1 10 км 10/0
[Ac As]
-19.0 -21.6 80 -22 -22 по сезону 1056.5 974.2
ЮЗ 1 4000 м слаб. снег 10/0
[Ac As]
-19.5 -22.1 80 -22 -22 по сезону 1056.8 974.3 -20.0 0.0 2
ЮЗ 1 10 км слаб. снег 10/0
[Ac As]
-17.3 -19.9 80 -20 -20 по сезону 1056.5 971.6
ЮЗ 1 20 км {снег} 9/0
[Ac As Ci sp]
-13.9 -18.2 70 -16 -15 по сезону 1055.0 971.4
Местоположение метеостанции Кызыл (Тува, Россия): широта 51.72 долгота 94.50 высота над уровнем моря 632 м.
В архиве по умолчанию представлена погода в Кызыле за последнюю неделю. Архивные данные за месяц целиком и за предыдущие месяцы, начиная с января 2011 года, Вы можете получить, выбрав интересующий диапазон дат из раскрывающегося списка и нажав кнопку "Найти!".
*Определитесь, кто Вы:
Внимание! Время в таблицах - всемирное. Для получения местного времени необходимо прибавить поправку, которая равна 7 ч.
Смотрите также архив погоды в соседних городах и на ближайших метеорологических станциях:
Партнеры нашего сайта:      
Пояснения к столбцам:
  • Ветер - указаны скорость ветра в м/с - средняя за 10 мин, порывы в срок и между сроками (в фигурных скобках) и направление, откуда дует ветер: С - северный,
  • СВ - северо-восточный, В - восточный, ЮВ - юго-восточный, Ю - южный, ЮЗ - юго-западный, З - западный, СЗ - северо-западный.
  • Видимость - горизонтальная дальность видимости в метрах или километрах. При видимости от 1 до 10 км при отсутствии осадков обычно наблюдается дымка, при ухудшении видимости до 1 км и менее - туман. В сухую погоду видимость может ухудшаться дымом, пылью или мглою.
  • Явления - указаны атмосферные явления, наблюдавшиеся в срок или в последний час перед сроком; фигурными скобками обозначены явления, наблюдавшиеся между сроками (за 1-3 часа до срока); квадратными скобками обозначены град или гололедные отложения с указанием их диаметра в мм.
  • Облачность - указаны через наклонную черту общая и нижняя облачность в баллах и высота нижней границы облаков в метрах; квадратными скобками обозначены формы облаков: Ci - перистые, Cs - перисто-слоистые, Cc - перисто-кучевые, Ac - высококучевые, As - высокослоистые, Sc - слоисто-кучевые, Ns - слоисто-дождевые, Cu - кучевые, Cb - кучево-дождевые. Подробнее классификацию облаков см. в Атласе облаков (PDF).
  • T - Температура воздуха - температура, измеренная на высоте 2 м над землей.
  • Td - Температура точки росы - температура, при понижении до которой содержащийся в воздухе водяной пар достигнет насыщения.
  • f - Относительная влажность воздуха - влажноcть воздуха, измеренная на высоте 2 м над землей.
  • Te - Эффективная температура - температура, которую ощущает одетый по сезону человек в тени. Характеристика душности погоды. При расчете учитывается влияние влажности воздуха и скорости ветра на теплоощущения человека.
  • Tes - Эффективная температура на солнце - температура, которую ощущает человек, с поправкой на солнечный нагрев. Характеристика знойности погоды. Зависит от высоты солнца над горизонтом, облачности и скорости ветра. Ночью, в пасмурную погоду, а также при ветре 12 м/с и более поправка равна нулю.
  • P - Атмосферное давление - приведенное к уровню моря атмосферное давление.
  • Po - Атмосферное давление - измеренное на уровне метеостанции атмосферное давление.
  • Tmin - Минимальная температура - минимум температуры воздуха на высоте 2 м над землей.
  • Tmax - Максимальная температура - максимум температуры воздуха на высоте 2 м над землей.
  • R - Количество осадков - Количество выпавших осадков за период времени, мм. При наведении курсора мыши на число - период времени, за который выпало указанное количество осадков.
  • R24 - Количество осадков - Количество выпавших осадков за 24 часа, мм.
  • S - Снежный покров - Высота снежного покрова, см. При наведении курсора мыши на число - состояние снежного покрова и степень покрытия местности в баллах.